Hourly Data Report for October 13, 2014

All times are specified in Local Standard Time (LST). Add 1 hour to adjust for Daylight Saving Time where and when it is observed.

RANKIN INLET A
NUNAVUT

62°48'38.000" N
92°06'53.000" W
32.30 m
2303405
71083
YRT

Download Data

Hourly Data (October 2014)
Hourly Data Report for October 13, 2014
Temp Definition
°C
Dew Point Temp Definition
°C
Rel Hum Definition
%
Wind Dir Definition
10's deg

Wind Spd Definition
km/h
Visibility Definition
km
Stn Press Definition
kPa
Hmdx Definition


Wind Chill Definition


Weather Definition


TIME
00:00 Legend Double Dagger -2.9 -5.4 83 32 13 24.1 100.10   -8 Cloudy
01:00 Legend Double Dagger -2.8 -5.1 84 33 14 24.1 100.11   -8 Snow
02:00 Legend Double Dagger -2.7 -5.4 82 34 18 24.1 100.11   -8 Snow
03:00 Legend Double Dagger -2.8 -5.3 83 33 16 24.1 100.13   -8 Snow
04:00 Legend Double Dagger -2.8 -4.8 86 33 15 24.1 100.15   -8 LegendNANA
05:00 Legend Double Dagger -2.6 -4.6 86 34 18 24.1 100.17   -8 LegendNANA
06:00 Legend Double Dagger -2.6 -4.8 85 35 20 24.1 100.19   -9 Cloudy
07:00 Legend Double Dagger -2.5 -4.8 84 35 22 24.1 100.19   -9 LegendNANA
08:00 Legend Double Dagger -2.5 -5.0 83 35 21 24.1 100.23   -9 LegendNANA
09:00 Legend Double Dagger -2.4 -4.9 83 34 22 24.1 100.28   -9 Cloudy
10:00 Legend Double Dagger -2.2 -4.5 84 35 15 24.1 100.30   -7 LegendNANA
11:00 Legend Double Dagger -2.2 -4.9 82 32 14 24.1 100.30   -7 LegendNANA
12:00 Legend Double Dagger -2.1 -5.3 79 32 16 24.1 100.32   -7 Cloudy
13:00 Legend Double Dagger -1.9 -5.8 75 31 17 24.1 100.37   -7 LegendNANA
14:00 Legend Double Dagger -2.2 -5.9 76 32 18 24.1 100.40   -8 LegendNANA
15:00 Legend Double Dagger -2.2 -6.1 75 32 17 24.1 100.42   -8 Cloudy
16:00 Legend Double Dagger -2.2 -6.6 72 29 25 24.1 100.43   -9 LegendNANA
17:00 Legend Double Dagger -2.7 -7.1 72 30 19 24.1 100.47   -8 LegendNANA
18:00 Legend Double Dagger -3.2 -7.0 75 30 21 24.1 100.50   -9 Mostly Cloudy
19:00 Legend Double Dagger -3.2 -7.0 75 29 12 24.1 100.51   -8 LegendNANA
20:00 Legend Double Dagger -3.4 -7.2 75 29 15 24.1 100.54   -9 LegendNANA
21:00 Legend Double Dagger -3.1 -7.1 74 29 14 24.1 100.52   -8 Cloudy
22:00 Legend Double Dagger -2.8 -5.1 84 28 21 24.1 100.52   -9 LegendNANA
23:00 Legend Double Dagger -2.8 -5.1 84 29 21 24.1 100.52   -9 LegendNANA

Notes on Data Quality.

Legend

  • E = Estimated
  • M = Missing
  • NA = Not Available
  • ‡ = Partner data that is not subject to review by the National Climate Archives
Date modified: